KINEIS-4A

Last updated on Fri Sep 11 2026 00:02:53 GMT+0000 (Coordinated Universal Time)

1 63303U 25056D 26253.59163140 .00001015 00000+0 16835-3 0 9992 2 63303 97.9201 15.3846 0002252 50.7333 309.4074 14.72275795 79691
UTC large
Height (km)
Speed (km/s)
/
Latitude / Longitude
Inclination (degrees)
Orbital Period (minutes)
Azimuth
Elevation
Range (km)
Doppler Factor

Next 0 passes for location: London (51.5072 / 0.1276)

No passes found over London.
KINEIS-4A